Find Starlink 32003

NORAD ID: 60097 Int'l Des: 2024-117 Owner: SPXS Country: US Constellation: starlink operational
LEOCIRCULAR

实时位置

正在加载3D地球...

关于 Starlink 32003

正在加载描述...

即将过境

Passes for default location (London). Set your location on the main map for personalized predictions.

高度历史

Loading altitude history...

两行轨道根数

1 60097U 24117G 26127.18156142 -.00000830 00000-0 -15911-4 0 9997
2 60097 53.1600 125.3061 0001237 89.9298 270.1844 15.30185926105849
Epoch: May 7, 2026 • Age: 5 hours

当前状态

高度 477.9 km
速度 7.63 km/s
星下点 38.71°N, 101.93°W
发射日期 Jun 23, 2024
运行时间 1.8 years
类型 internet

技术详情

分类 Payload
质量 730.00 kg
干质量 700.00 kg
总质量 730.00 kg
长度 0.30 m
直径 4.10 m
跨度 29.00 m
形状 Box + pan
制造商 SPXS
平台类型 Starlink V2M
阶段状态 In Orbit
所有者/国家 SPXS/US

Most Searched